Location: *
(42.0175°N, 9.4056°E)
Time: 16:13:38
(UTC+00:00)

SPOT 3 Rocket - Pass Details

Date: 25 August 2019
Orbit: 778 x 795 km, 98.8° (Epoch: 16 September)

Event Time Altitude Azimuth Distance (km) Brightness Sun altitude
Rises 19:02:49 0° 165° (SSE) 3,267 6.4 -10.4°
Reaches altitude 10° 19:05:07 10° 165° (SSE) 2,340 5.6 -10.8°
Maximum altitude 19:10:18 89° 256° (WSW) 791 3.6 -11.6°
Drops below altitude 10° 19:15:29 10° 346° (NNW) 2,346 6.6 -12.5°
Sets 19:17:48 0° 347° (NNW) 3,277 7.4 -12.9°
